This is the latest recevied weather packets stored in our database for station/object W0WFX-2. If no packets are shown the sender has not sent any weather packets the latest 10 day(s).
| Time | Temp. | Humidity | Pressure | Rain* | Wind** | Luminosity | Snow |
|---|---|---|---|---|---|---|---|
| 1788379394 | 37.22° C | 37% | 1013.4 hPa | 0 mm | - | 194 W/m² | - |
| 1788379090 | 37.78° C | 35% | 1013.5 hPa | 0 mm | - | 153 W/m² | - |
| 1788378789 | 38.33° C | 37% | 1013.6 hPa | 0 mm | - | 138 W/m² | - |
| 1788378484 | 38.89° C | 34% | 1013.5 hPa | 0 mm | - | 148 W/m² | - |
| 1788378179 | 38.33° C | 35% | 1013.6 hPa | 0 mm | - | 714 W/m² | - |
| 1788377874 | 38.33° C | 35% | 1013.8 hPa | 0 mm | - | 726 W/m² | - |
| 1788377570 | 37.78° C | 37% | 1013.8 hPa | 0 mm | - | 758 W/m² | - |
| 1788377268 | 37.78° C | 37% | 1014 hPa | 0 mm | - | 750 W/m² | - |
| 1788376968 | 38.33° C | 35% | 1013.9 hPa | 0 mm | - | 132 W/m² | - |
| 1788376667 | 38.33° C | 35% | 1013.9 hPa | 0 mm | - | 754 W/m² | - |
| 1788376362 | 37.78° C | 37% | 1014.1 hPa | 0 mm | - | 757 W/m² | - |
| 1788376057 | 37.78° C | 37% | 1014.1 hPa | 0 mm | - | 172 W/m² | - |
| 1788375758 | 37.78° C | 37% | 1014.2 hPa | 0 mm | - | 722 W/m² | - |
| 1788375453 | 38.33° C | 38% | 1014.1 hPa | 0 mm | - | 723 W/m² | - |
| 1788375148 | 37.78° C | 38% | 1014.3 hPa | 0 mm | - | 712 W/m² | - |
| 1788374844 | 38.33° C | 36% | 1014.3 hPa | 0 mm | - | 721 W/m² | - |
| 1788374540 | 38.33° C | 36% | 1014.5 hPa | 0 mm | - | 722 W/m² | - |
| 1788374235 | 38.33° C | 37% | 1014.4 hPa | 0 mm | - | 726 W/m² | - |
| 1788373932 | 37.78° C | 38% | 1014.7 hPa | 0 mm | - | 723 W/m² | - |
| 1788373628 | 37.78° C | 38% | 1014.6 hPa | 0 mm | - | 723 W/m² | - |
| 1788373324 | 37.78° C | 38% | 1014.7 hPa | 0 mm | - | 725 W/m² | - |
| 1788373019 | 37.78° C | 38% | 1014.7 hPa | 0 mm | - | 723 W/m² | - |
| 1788372720 | 37.78° C | 38% | 1014.6 hPa | 0 mm | - | 726 W/m² | - |
| 1788372442 | 37.78° C | 38% | 1015 hPa | 0 mm | - | 724 W/m² | - |
| 1788372115 | 37.78° C | 39% | 1014.8 hPa | 0 mm | - | 724 W/m² | - |
* Rain latest hour (hover to see other rain measurements)
** Current wind speed in m/s (hover to see current wind gust speed)